User: anonymous   Login
Location: Houston
(29.7630°N, 95.3630°W)
Time: 23:13:33
(UTC-05:00)
Language:

Saudisat 1A - Orbit

View from above orbital plane
View from above orbital plane
View from above satellite
View from above satellite

Ground track
Ground track

The orbit data is extracted from the following two-line orbital elements,

1 26546U 00057B   17146.55146398 +.00000117 +00000-0 +28071-4 0  9996
2 26546 064.5558 043.0161 0031399 228.2440 131.5985 14.90522478903411
Epoch (UTC): 26 May 2017 13:14:06
Eccentricity: 0.0031399
inclination: 64.5558°
perigee height: 574 km
apogee height: 618 km
right ascension of ascending node: 43.0161°
argument of perigee: 228.2440°
revolutions per day: 14.90522478
mean anomaly at epoch: 131.5985°
orbit number at epoch: 90341

The dashed part of the orbit path shows where the satellite is in the earth's shadow,  

DLR